When you browse on this site, cookies collect data to enhance your experience and personalize the content and advertising you see.
Visit our Privacy Policy to learn more. By continuing to use the site, you agree to this use of cookies and data.
  • En España
  • Lista de países
  • Para 7 días
  • Temperatura del agua
  • Mapa Satelital
  • El tiempo en el mapa
  • Informadores
  • user-avatar
    Iniciar sesión

    Tiempo cada hora La Paz

    Hoy, 20 Noviembre, Martes

    Tiempo Temperatura Precipitaciones Viento Presión Humedad
    00:00 +8°C° 0.8 mm 1 mps 475 mmHg 86%
    01:00 +8°C° 0 mm 1 mps 475 mmHg 85%
    02:00 +8°C° 0.1 mm 1 mps 475 mmHg 85%
    03:00 +7°C° 0.1 mm 1 mps 474 mmHg 86%
    04:00 +7°C° 0.1 mm 1 mps 474 mmHg 86%
    05:00 +8°C° 0 mm 1 mps 475 mmHg 83%
    06:00 +9°C° 0 mm 1 mps 475 mmHg 80%
    07:00 +9°C° 0 mm 1 mps 476 mmHg 77%
    08:00 +11°C° 0 mm 1 mps 477 mmHg 72%
    09:00 +12°C° 0 mm 1 mps 477 mmHg 67%
    10:00 +13°C° 0 mm 2 mps 478 mmHg 62%
    11:00 +13°C° 0.2 mm 2 mps 477 mmHg 61%
    12:00 +14°C° 0.2 mm 2 mps 477 mmHg 60%
    13:00 +14°C° 0.2 mm 2 mps 477 mmHg 60%
    14:00 +14°C° 0.2 mm 2 mps 476 mmHg 62%
    15:00 +14°C° 0.2 mm 2 mps 476 mmHg 63%
    16:00 +12°C° 0.2 mm 3 mps 476 mmHg 65%
    17:00 +11°C° 0.1 mm 3 mps 475 mmHg 71%
    18:00 +10°C° 0.1 mm 3 mps 475 mmHg 77%
    19:00 +9°C° 0.1 mm 3 mps 475 mmHg 83%
    20:00 +9°C° 0.2 mm 3 mps 475 mmHg 84%
    21:00 +8°C° 0.2 mm 3 mps 476 mmHg 85%
    22:00 +8°C° 0.2 mm 2 mps 476 mmHg 86%
    23:00 +8°C° 0.1 mm 2 mps 476 mmHg 85%

    Mañana, 21 Noviembre, Miércoles

    Tiempo Temperatura Precipitaciones Viento Presión Humedad
    00:00 +8°C° 0.1 mm 2 mps 475 mmHg 84%
    01:00 +8°C° 0.1 mm 1 mps 475 mmHg 83%
    02:00 +8°C° 0 mm 1 mps 475 mmHg 84%
    03:00 +8°C° 0 mm 1 mps 475 mmHg 85%
    04:00 +8°C° 0 mm 1 mps 474 mmHg 86%
    05:00 +8°C° 0 mm 1 mps 475 mmHg 82%
    06:00 +9°C° 0 mm 1 mps 476 mmHg 78%
    07:00 +10°C° 0 mm 1 mps 476 mmHg 74%
    08:00 +11°C° 0.1 mm 1 mps 477 mmHg 69%
    09:00 +12°C° 0.1 mm 2 mps 478 mmHg 64%
    10:00 +14°C° 0.1 mm 2 mps 478 mmHg 59%
    11:00 +14°C° 0.2 mm 2 mps 478 mmHg 58%
    12:00 +14°C° 0.2 mm 2 mps 478 mmHg 57%
    13:00 +14°C° 0.2 mm 3 mps 477 mmHg 56%
    14:00 +13°C° 0.4 mm 3 mps 477 mmHg 59%
    15:00 +13°C° 0.4 mm 3 mps 476 mmHg 63%
    16:00 +13°C° 0.4 mm 3 mps 475 mmHg 66%
    17:00 +12°C° 0.2 mm 3 mps 475 mmHg 71%
    18:00 +11°C° 0.2 mm 4 mps 475 mmHg 76%
    19:00 +10°C° 0.2 mm 4 mps 475 mmHg 81%
    20:00 +9°C° 0.5 mm 3 mps 475 mmHg 83%
    21:00 +9°C° 0.5 mm 2 mps 475 mmHg 85%
    22:00 +8°C° 0.5 mm 2 mps 475 mmHg 87%
    23:00 +8°C° 0.7 mm 2 mps 475 mmHg 87%

    Pasado mañana, 22 Noviembre, Jueves

    Tiempo Temperatura Precipitaciones Viento Presión Humedad
    00:00 +9°C° 0.7 mm 1 mps 475 mmHg 86%
    01:00 +8°C° 0.7 mm 1 mps 474 mmHg 86%
    02:00 +8°C° 0.2 mm 1 mps 474 mmHg 85%
    03:00 +8°C° 0.2 mm 1 mps 474 mmHg 84%
    04:00 +8°C° 0.2 mm 1 mps 474 mmHg 84%
    05:00 +9°C° 0.1 mm 1 mps 474 mmHg 79%
    06:00 +10°C° 0.1 mm 1 mps 475 mmHg 75%
    07:00 +9°C° 0.1 mm 0 mps 476 mmHg 71%
    08:00 +12°C° 0.1 mm 1 mps 476 mmHg 65%
    09:00 +13°C° 0.1 mm 1 mps 477 mmHg 59%
    10:00 +14°C° 0.1 mm 2 mps 478 mmHg 54%
    11:00 +14°C° 0.7 mm 2 mps 477 mmHg 55%
    12:00 +15°C° 0.7 mm 2 mps 476 mmHg 57%
    13:00 +15°C° 0.7 mm 2 mps 476 mmHg 58%
    14:00 +14°C° 1.2 mm 2 mps 475 mmHg 60%
    15:00 +14°C° 1.2 mm 2 mps 475 mmHg 62%
    16:00 +14°C° 1.2 mm 2 mps 474 mmHg 64%
    17:00 +13°C° 0.8 mm 2 mps 474 mmHg 70%
    18:00 +12°C° 0.8 mm 2 mps 474 mmHg 75%
    19:00 +10°C° 0.8 mm 3 mps 474 mmHg 80%
    20:00 +10°C° 0.7 mm 2 mps 474 mmHg 80%
    21:00 +9°C° 0.7 mm 2 mps 475 mmHg 80%
    22:00 +9°C° 0.7 mm 2 mps 475 mmHg 81%
    23:00 +10°C° 0.4 mm 1 mps 474 mmHg 81%

    23 Noviembre, Viernes

    Tiempo Temperatura Precipitaciones Viento Presión Humedad
    00:00 +9°C° 0.4 mm 1 mps 474 mmHg 82%
    01:00 +9°C° 0.4 mm 1 mps 473 mmHg 82%
    02:00 +9°C° 0.1 mm 1 mps 473 mmHg 83%
    03:00 +9°C° 0.1 mm 1 mps 473 mmHg 83%
    04:00 +7°C° 0.1 mm 0 mps 473 mmHg 84%
    05:00 +9°C° 0 mm 1 mps 473 mmHg 80%
    06:00 +10°C° 0 mm 1 mps 474 mmHg 76%
    07:00 +10°C° 0 mm 1 mps 475 mmHg 72%
    08:00 +12°C° 0.1 mm 1 mps 475 mmHg 67%
    09:00 +13°C° 0.1 mm 1 mps 476 mmHg 62%
    10:00 +14°C° 0.1 mm 2 mps 476 mmHg 57%
    11:00 +14°C° 0.4 mm 2 mps 476 mmHg 58%
    12:00 +15°C° 0.4 mm 2 mps 476 mmHg 58%
    13:00 +15°C° 0.4 mm 2 mps 475 mmHg 58%
    14:00 +15°C° 0.8 mm 2 mps 475 mmHg 61%
    15:00 +13°C° 0.8 mm 3 mps 474 mmHg 63%
    16:00 +13°C° 0.8 mm 3 mps 474 mmHg 66%
    17:00 +12°C° 0.5 mm 3 mps 474 mmHg 71%
    18:00 +11°C° 0.5 mm 3 mps 474 mmHg 76%
    19:00 +10°C° 0.5 mm 4 mps 474 mmHg 81%
    20:00 +9°C° 0.4 mm 3 mps 474 mmHg 82%
    21:00 +9°C° 0.4 mm 3 mps 474 mmHg 83%
    22:00 +9°C° 0.4 mm 2 mps 475 mmHg 84%
    23:00 +8°C° 0.1 mm 2 mps 474 mmHg 84%

    24 Noviembre, Sábado

    Tiempo Temperatura Precipitaciones Viento Presión Humedad
    00:00 +9°C° 0.1 mm 1 mps 474 mmHg 85%
    01:00 +9°C° 0.1 mm 1 mps 473 mmHg 86%
    02:00 +9°C° 0 mm 1 mps 473 mmHg 87%
    03:00 +8°C° 0 mm 1 mps 473 mmHg 88%
    04:00 +8°C° 0 mm 1 mps 473 mmHg 88%
    05:00 +9°C° 0.1 mm 1 mps 473 mmHg 86%
    06:00 +8°C° 0.1 mm 2 mps 474 mmHg 83%
    07:00 +8°C° 0.1 mm 2 mps 475 mmHg 81%
    08:00 +9°C° 0.1 mm 2 mps 475 mmHg 77%
    09:00 +10°C° 0.1 mm 2 mps 476 mmHg 72%
    10:00 +11°C° 0.1 mm 3 mps 476 mmHg 68%
    11:00 +11°C° 0.4 mm 3 mps 476 mmHg 67%
    12:00 +12°C° 0.4 mm 3 mps 475 mmHg 67%
    13:00 +12°C° 0.4 mm 4 mps 475 mmHg 66%
    14:00 +11°C° 0.4 mm 4 mps 475 mmHg 69%
    15:00 +11°C° 0.4 mm 4 mps 474 mmHg 72%
    16:00 +10°C° 0.4 mm 4 mps 473 mmHg 75%
    17:00 +8°C° 0.1 mm 4 mps 474 mmHg 78%
    18:00 +8°C° 0.1 mm 4 mps 474 mmHg 82%
    19:00 +7°C° 0.1 mm 4 mps 474 mmHg 85%
    20:00 +8°C° 0 mm 3 mps 474 mmHg 86%
    21:00 +7°C° 0 mm 3 mps 474 mmHg 86%
    22:00 +7°C° 0 mm 2 mps 474 mmHg 87%
    23:00 +7°C° 0.1 mm 2 mps 474 mmHg 86%

    25 Noviembre, Domingo

    Tiempo Temperatura Precipitaciones Viento Presión Humedad
    00:00 +8°C° 0.1 mm 1 mps 473 mmHg 86%
    01:00 +8°C° 0.1 mm 1 mps 473 mmHg 85%
    02:00 +7°C° 0.2 mm 1 mps 473 mmHg 86%
    03:00 +7°C° 0.2 mm 1 mps 473 mmHg 87%
    04:00 +7°C° 0.2 mm 1 mps 473 mmHg 88%
    05:00 +8°C° 0.3 mm 1 mps 473 mmHg 85%
    06:00 +8°C° 0.3 mm 1 mps 474 mmHg 82%
    07:00 +9°C° 0.3 mm 1 mps 475 mmHg 80%
    08:00 +9°C° 0.4 mm 2 mps 475 mmHg 75%
    09:00 +10°C° 0.4 mm 2 mps 476 mmHg 70%
    10:00 +12°C° 0.4 mm 2 mps 476 mmHg 65%
    11:00 +11°C° 0.4 mm 3 mps 476 mmHg 65%
    12:00 +12°C° 0.4 mm 3 mps 475 mmHg 64%
    13:00 +12°C° 0.4 mm 4 mps 475 mmHg 63%
    14:00 +12°C° 0.5 mm 4 mps 474 mmHg 66%
    15:00 +11°C° 0.5 mm 4 mps 474 mmHg 69%
    16:00 +11°C° 0.5 mm 4 mps 473 mmHg 72%
    17:00 +10°C° 0.2 mm 4 mps 473 mmHg 77%
    18:00 +8°C° 0.2 mm 4 mps 473 mmHg 81%
    19:00 +8°C° 0.2 mm 3 mps 473 mmHg 86%
    20:00 +8°C° 0.1 mm 3 mps 473 mmHg 86%
    21:00 +7°C° 0.1 mm 2 mps 474 mmHg 86%
    22:00 +7°C° 0.1 mm 2 mps 474 mmHg 86%
    23:00 +7°C° 0.2 mm 2 mps 473 mmHg 86%
    Mostrar más